1485900000.47,63381,10.06,73258.5,-6.09,-7.53,-7.57,0,*54
1485900001.75,63382,10.06,73256.3,-6.11,-7.57,-7.61,0,*5F
1485900002.97,63383,10.06,73258.8,-6.09,-7.53,-7.65,0,*57
1485900004.22,63384,10.06,73256.8,-6.11,-7.49,-7.65,0,*52
1485900005.47,63385,10.06,73256.8,-6.09,-7.43,-7.57,0,*51
1485900006.69,63386,10.06,73256.5,-6.09,-7.43,-7.53,0,*56
1485900007.91,63387,10.06,73250.8,-6.09,-7.43,-7.53,0,*57
1485900009.15,63388,10.06,73252.3,-6.09,-7.39,-7.39,0,*59
1485900010.39,63389,10.06,73252.8,-6.09,-7.39,-7.39,0,*58
1485900011.63,63390,10.06,73256.0,-6.09,-7.39,-7.39,0,*50
1485900012.88,63391,10.06,73260.5,-6.09,-7.39,-7.39,0,*51
1485900014.13,63392,10.06,73252.8,-6.09,-7.43,-7.43,0,*52
1485900015.41,63393,10.06,73246.8,-6.11,-7.57,-7.57,0,*5A
1485900016.69,63394,10.06,73236.5,-6.07,-7.57,-7.57,0,*5A
1485900017.97,63395,10.06,73232.3,-6.07,-7.65,-7.65,0,*5B
1485900019.24,63396,10.06,73234.5,-6.07,-7.65,-7.65,0,*58
1485900020.52,63397,10.06,73230.3,-6.07,-7.65,-7.65,0,*59
1485900021.77,63398,10.06,73230.3,-6.09,-7.65,-7.69,0,*54
1485900023.01,63399,10.06,73236.3,-6.09,-7.65,-7.69,0,*55
1485900024.26,63400,10.06,73238.3,-6.09,-7.57,-7.65,0,*5F
1485900025.51,63401,10.06,73240.3,-6.09,-7.65,-7.69,0,*53
1485900026.76,63402,10.06,73250.5,-6.09,-7.65,-7.69,0,*50
1485900028.0,63403,10.06,73244.0,-6.09,-7.65,-7.69,0,*51
1485900029.26,63404,10.06,73246.3,-6.09,-7.65,-7.57,0,*5B
1485900030.51,63405,10.06,73242.5,-6.09,-7.65,-7.65,0,*5B
1485900031.78,63406,10.06,73248.8,-6.11,-7.69,-7.69,0,*51
1485900033.05,63407,10.06,73250.5,-6.11,-7.61,-7.69,0,*58
1485900034.3,63408,10.06,73254.8,-6.09,-7.65,-7.69,0,*5A
1485900035.57,63409,10.06,73256.3,-6.11,-7.69,-7.69,0,*5E
1485900036.82,63410,10.06,73252.8,-6.09,-7.57,-7.65,0,*5E
1485900038.09,63411,10.06,73254.0,-6.11,-7.57,-7.69,0,*5A
1485900039.32,63412,10.06,73254.8,-6.09,-7.53,-7.57,0,*59
1485900040.59,63413,10.06,73258.8,-6.11,-7.69,-7.61,0,*5D
1485900041.87,63414,10.06,73256.8,-6.11,-7.61,-7.61,0,*52
1485900043.13,63415,10.06,73256.3,-6.09,-7.57,-7.65,0,*5B
1485900044.38,63416,10.06,73256.3,-6.09,-7.57,-7.57,0,*59
1485900045.57,63417,10.06,73258.3,-6.09,-7.53,-7.53,0,*58
1485900046.82,63418,10.06,73252.0,-6.09,-7.65,-7.65,0,*57
1485900048.08,63419,10.06,73252.3,-6.09,-7.57,-7.65,0,*57
1485900049.36,63420,10.06,73250.5,-6.11,-7.61,-7.61,0,*55
1485900050.61,63421,10.06,73252.3,-6.09,-7.57,-7.57,0,*5D
1485900051.86,63422,10.06,73250.8,-6.09,-7.57,-7.65,0,*5F
1485900053.14,63423,10.06,73254.3,-6.11,-7.61,-7.61,0,*56
1485900054.39,63424,10.06,73252.5,-6.09,-7.61,-7.69,0,*50
1485900055.64,63425,10.06,73254.8,-6.09,-7.65,-7.65,0,*59
1485900056.89,63426,10.06,73250.0,-6.09,-7.57,-7.65,0,*5B
1485900058.14,63427,10.06,73240.3,-6.09,-7.65,-7.65,0,*5B
1485900059.41,63428,10.06,73242.0,-6.11,-7.69,-7.69,0,*5D
1485900060.69,63429,10.06,73250.8,-6.07,-7.57,-7.65,0,*5A
1485900061.94,63430,10.06,73254.0,-6.09,-7.61,-7.57,0,*58
1485900063.22,63431,10.06,73256.0,-6.11,-7.61,-7.69,0,*5D
1485900064.47,63432,10.06,73256.3,-6.09,-7.65,-7.65,0,*5F
1485900065.71,63433,10.13,73256.5,-6.09,-7.65,-7.69,0,*52
1485900066.97,63434,10.06,73246.0,-6.11,-7.73,-7.83,0,*5F
1485900068.2,63435,10.06,73242.3,-6.09,-7.77,-7.87,0,*57
1485900069.44,63436,10.06,73248.3,-6.09,-7.77,-7.69,0,*54
1485900070.72,63437,10.06,73248.3,-6.11,-7.69,-7.61,0,*5B
1485900071.94,63438,10.06,73248.5,-6.09,-7.57,-7.53,0,*51
1485900073.17,63439,10.06,73250.8,-6.09,-7.53,-7.43,0,*55
1485900074.42,63440,10.06,73248.8,-6.09,-7.43,-7.43,0,*5A
1485900075.67,63441,10.06,73258.3,-6.09,-7.43,-7.39,0,*56
1485900076.86,63442,10.06,73254.8,-6.09,-7.53,-7.53,0,*58
1485900078.08,63443,10.06,73252.3,-6.09,-7.53,-7.31,0,*5D
1485900079.32,63444,10.06,73252.8,-6.09,-7.39,-7.31,0,*56
1485900080.57,63445,10.06,73258.8,-6.09,-7.43,-7.39,0,*52
1485900081.76,63446,10.06,73256.0,-6.09,-7.53,-7.53,0,*5C
1485900082.99,63447,10.06,73250.3,-6.09,-7.53,-7.43,0,*5C
1485900084.24,63448,10.06,73250.5,-6.07,-7.53,-7.57,0,*58
1485900085.49,63449,10.06,73250.5,-6.09,-7.65,-7.57,0,*52
1485900086.68,63450,10.06,73248.8,-6.09,-7.53,-7.53,0,*5B
1485900087.93,63451,10.06,73244.8,-6.09,-7.43,-7.39,0,*57
1485900089.17,63452,10.06,73246.5,-6.09,-7.39,-7.39,0,*59
1485900090.41,63453,10.06,73244.5,-6.09,-7.31,-7.39,0,*50
1485900091.69,63454,10.06,73248.5,-6.07,-7.43,-7.39,0,*5C
1485900092.96,63455,10.06,73250.0,-6.07,-7.39,-7.39,0,*50
1485900094.23,63456,10.06,73250.5,-6.07,-7.31,-7.39,0,*5B
1485900095.5,63457,10.06,73254.8,-6.07,-7.39,-7.31,0,*5A
1485900096.77,63458,10.06,73254.8,-6.07,-7.31,-7.39,0,*55
1485900098.01,63459,10.06,73254.8,-6.09,-7.31,-7.39,0,*5A
1485900099.25,63460,10.06,73258.3,-6.09,-7.39,-7.39,0,*58
1485900100.47,63461,10.06,73258.0,-6.07,-7.53,-7.53,0,*57
1485900101.75,63462,10.06,73258.3,-6.07,-7.43,-7.43,0,*54
1485900103.03,63463,10.06,73256.5,-6.07,-7.43,-7.43,0,*55
1485900104.31,63464,10.06,73252.8,-6.07,-7.43,-7.43,0,*52
1485900105.59,63465,10.06,73256.3,-6.07,-7.43,-7.43,0,*53
1485900106.84,63466,10.06,73256.5,-6.07,-7.53,-7.57,0,*54
1485900108.12,63467,10.06,73262.8,-6.07,-7.57,-7.65,0,*50
1485900109.37,63468,10.06,73260.0,-6.07,-7.53,-7.65,0,*5B
1485900110.61,63469,10.06,73256.3,-6.07,-7.43,-7.53,0,*5E
1485900111.83,63470,10.06,73248.5,-6.07,-7.53,-7.53,0,*57
1485900113.11,63471,10.06,73244.8,-6.07,-7.43,-7.57,0,*53
1485900114.39,63472,10.06,73248.3,-6.07,-7.43,-7.43,0,*55
1485900115.6,63473,10.06,73248.5,-6.07,-7.53,-7.53,0,*54
1485900116.88,63474,10.06,73252.5,-6.07,-7.43,-7.43,0,*53
1485900118.1,63475,10.06,73250.5,-6.07,-7.53,-7.53,0,*52
1485900119.32,63476,10.06,73246.3,-6.07,-7.53,-7.53,0,*51
1485900120.54,63477,10.06,73246.0,-6.09,-7.43,-7.53,0,*5F
1485900121.81,63478,10.06,73244.0,-6.07,-7.31,-7.39,0,*57
1485900123.08,63479,10.06,73246.3,-6.07,-7.31,-7.39,0,*56
1485900124.33,63480,10.06,73248.8,-6.01,-7.35,-7.35,0,*5E
1485900125.6,63481,10.06,73246.3,-6.07,-7.31,-7.39,0,*51
1485900126.86,63482,10.06,73248.8,-6.07,-7.39,-7.39,0,*5A
1485900128.14,63483,10.06,73252.8,-6.07,-7.31,-7.39,0,*53
1485900129.37,63484,10.06,73250.5,-6.07,-7.39,-7.53,0,*50
1485900130.62,63485,10.06,73258.3,-6.05,-7.31,-7.39,0,*57
1485900131.83,63486,10.06,73258.8,-6.05,-7.39,-7.49,0,*5B
1485900133.11,63487,10.06,73260.8,-6.07,-7.43,-7.57,0,*5A
1485900134.38,63488,10.06,73266.0,-6.07,-7.39,-7.43,0,*5D
1485900135.65,63489,10.06,73264.0,-6.07,-7.31,-7.39,0,*59
1485900136.92,63490,10.06,73266.0,-6.07,-7.39,-7.39,0,*59
1485900138.19,63491,10.06,73268.5,-6.07,-7.31,-7.39,0,*50
1485900139.44,63492,10.06,73264.3,-6.05,-7.27,-7.39,0,*56
1485900140.71,63493,10.06,73268.3,-6.07,-7.39,-7.43,0,*57
1485900141.99,63494,10.06,73268.0,-6.07,-7.43,-7.43,0,*5D
1485900143.21,63495,10.06,73270.5,-6.05,-7.35,-7.49,0,*55
1485900144.45,63496,10.06,73272.8,-6.07,-7.43,-7.53,0,*5E
1485900145.67,63497,10.06,73270.8,-6.07,-7.53,-7.53,0,*5E
1485900146.89,63498,10.06,73262.0,-6.07,-7.53,-7.53,0,*51
1485900148.17,63499,10.06,73242.5,-6.07,-7.57,-7.57,0,*50
1485900149.36,63500,10.06,73236.8,-6.05,-7.53,-7.53,0,*53
1485900150.61,63501,10.06,73238.0,-6.07,-7.43,-7.53,0,*51
1485900151.85,63502,10.06,73242.0,-6.07,-7.43,-7.53,0,*52
1485900153.13,63503,10.06,73244.0,-6.07,-7.43,-7.31,0,*57
1485900154.4,63504,10.06,73240.3,-6.07,-7.39,-7.31,0,*5D
1485900155.67,63505,10.06,73240.0,-6.07,-7.43,-7.31,0,*51
1485900156.95,63506,10.06,73240.3,-6.07,-7.31,-7.31,0,*57
1485900158.22,63507,10.06,73246.5,-6.07,-7.31,-7.31,0,*56
1485900159.49,63508,10.06,73242.5,-6.07,-7.31,-7.31,0,*59
1485900160.73,63509,10.06,73250.0,-6.05,-7.35,-7.35,0,*5A
1485900162.0,63510,10.06,73250.0,-6.07,-7.39,-7.31,0,*58
1485900163.25,63511,10.06,73256.5,-6.05,-7.27,-7.35,0,*50
1485900164.52,63512,10.06,73254.8,-6.07,-7.39,-7.39,0,*52
1485900165.78,63513,10.06,73258.8,-6.07,-7.39,-7.39,0,*53
1485900167.06,63514,10.06,73254.3,-6.07,-7.43,-7.39,0,*59
1485900168.31,63515,10.06,73254.8,-6.05,-7.35,-7.27,0,*54
1485900169.57,63516,10.06,73252.5,-6.07,-7.39,-7.39,0,*56
1485900170.82,63517,10.06,73258.3,-6.05,-7.27,-7.35,0,*56
1485900172.09,63518,10.06,73258.5,-6.07,-7.39,-7.31,0,*50
1485900173.36,63519,10.06,73262.0,-6.07,-7.39,-7.31,0,*51
1485900174.62,63520,10.06,73260.3,-6.07,-7.39,-7.39,0,*53
1485900175.9,63521,10.06,73260.5,-6.07,-7.31,-7.31,0,*52
1485900177.17,63522,10.06,73260.0,-6.07,-7.27,-7.27,0,*51
1485900178.39,63523,10.06,73260.0,-6.05,-7.27,-7.23,0,*56
1485900179.61,63524,10.06,73260.0,-6.05,-7.27,-7.23,0,*51
1485900180.89,63525,10.06,73260.5,-6.07,-7.27,-7.27,0,*56
1485900182.11,63526,10.06,73260.3,-6.05,-7.27,-7.19,0,*5A
1485900183.38,63527,10.06,73258.8,-6.07,-7.27,-7.27,0,*54
1485900184.65,63528,10.06,73258.0,-6.07,-7.27,-7.27,0,*5B
1485900185.92,63529,10.06,73260.3,-6.07,-7.39,-7.39,0,*5A
1485900187.19,63530,10.06,73252.8,-6.07,-7.31,-7.39,0,*5A
1485900188.46,63531,10.06,73256.0,-6.07,-7.39,-7.31,0,*5B
1485900189.73,63532,10.06,73258.8,-6.07,-7.39,-7.39,0,*50
1485900191.0,63533,10.06,73254.0,-6.07,-7.31,-7.39,0,*59
1485900192.27,63534,10.06,73256.3,-6.07,-7.39,-7.31,0,*5E
1485900193.51,63535,10.06,73264.5,-6.05,-7.35,-7.27,0,*56
1485900194.71,63536,10.06,73262.5,-6.05,-7.53,-7.53,0,*56
1485900195.96,63537,10.06,73260.8,-6.05,-7.61,-7.61,0,*57
1485900197.23,63538,10.06,73260.3,-6.07,-7.65,-7.57,0,*5B
1485900198.48,63539,10.06,73258.5,-6.07,-7.53,-7.65,0,*5E
1485900199.7,63540,10.06,73252.8,-6.07,-7.53,-7.53,0,*55
1485900200.98,63541,10.06,73252.3,-6.07,-7.43,-7.43,0,*54
1485900202.2,63542,10.06,73254.3,-6.07,-7.53,-7.53,0,*57
1485900203.48,63543,10.06,73256.0,-6.07,-7.31,-7.43,0,*53
1485900204.74,63544,10.06,73258.3,-6.07,-7.39,-7.39,0,*51
1485900206.01,63545,10.06,73256.5,-6.07,-7.39,-7.31,0,*58
1485900207.26,63546,10.06,73256.5,-6.05,-7.27,-7.27,0,*51
1485900208.53,63547,10.06,73258.8,-6.07,-7.31,-7.27,0,*55
1485900209.8,63548,10.06,73254.5,-6.07,-7.27,-7.27,0,*5D
1485900211.07,63549,10.06,73256.5,-6.07,-7.39,-7.31,0,*54
1485900212.34,63550,10.06,73260.8,-6.07,-7.31,-7.39,0,*5C
1485900213.59,63551,10.06,73262.3,-6.05,-7.35,-7.39,0,*5B
1485900214.87,63552,10.06,73260.8,-6.07,-7.43,-7.43,0,*56
1485900216.13,63553,10.06,73262.5,-6.07,-7.39,-7.39,0,*57
1485900217.38,63554,10.06,73266.8,-6.05,-7.35,-7.39,0,*5E
1485900218.63,63555,10.06,73260.0,-6.05,-7.35,-7.27,0,*50
1485900219.87,63556,10.06,73260.3,-6.05,-7.27,-7.35,0,*53
1485900221.12,63557,10.06,73262.3,-6.05,-7.27,-7.27,0,*51
1485900222.39,63558,10.06,73270.0,-6.07,-7.31,-7.31,0,*5C
1485900223.66,63559,10.06,73266.5,-6.07,-7.39,-7.39,0,*5D
1485900224.91,63560,10.06,73254.0,-6.07,-7.57,-7.53,0,*53
1485900226.15,63561,10.06,73252.5,-6.07,-7.65,-7.53,0,*53
1485900227.43,63562,10.06,73262.8,-6.07,-7.57,-7.65,0,*54
1485900228.71,63563,10.06,73260.0,-6.07,-7.65,-7.61,0,*50
1485900229.99,63564,10.06,73254.8,-6.07,-7.65,-7.77,0,*50
1485900231.26,63565,10.06,73252.8,-6.07,-7.65,-7.69,0,*5E
1485900232.54,63566,10.06,73252.3,-6.07,-7.65,-7.69,0,*5D
1485900233.76,63567,10.06,73254.8,-6.05,-7.53,-7.65,0,*57
1485900235.01,63568,10.06,73252.0,-6.07,-7.53,-7.65,0,*5A
1485900236.26,63569,10.06,73252.8,-6.07,-7.53,-7.57,0,*5A
1485900237.5,63570,10.06,73254.3,-6.07,-7.53,-7.65,0,*53
1485900238.75,63571,10.06,73258.8,-6.07,-7.53,-7.57,0,*53
1485900240.0,63572,10.06,73258.0,-6.07,-7.53,-7.65,0,*51
1485900241.23,63573,10.06,73258.0,-6.05,-7.53,-7.61,0,*56
1485900242.48,63574,10.06,73258.3,-6.07,-7.53,-7.65,0,*57
1485900243.7,63575,10.06,73262.5,-6.05,-7.49,-7.61,0,*5B
1485900244.92,63576,10.06,73258.0,-6.05,-7.49,-7.61,0,*58
1485900246.17,63577,10.06,73262.5,-6.07,-7.53,-7.65,0,*54
1485900247.39,63578,10.06,73260.0,-6.05,-7.53,-7.61,0,*5D
1485900248.67,63579,10.06,73254.8,-6.07,-7.69,-7.69,0,*5F
1485900249.94,63580,10.06,73258.3,-6.07,-7.57,-7.69,0,*54
1485900251.22,63581,10.06,73262.3,-6.07,-7.57,-7.57,0,*58
1485900252.47,63582,10.06,73262.3,-6.07,-7.53,-7.57,0,*5F
1485900253.69,63583,10.06,73260.3,-6.05,-7.49,-7.57,0,*57
1485900254.94,63584,10.06,73258.0,-6.07,-7.43,-7.53,0,*5C
1485900256.15,63585,10.06,73256.8,-6.05,-7.49,-7.39,0,*59
1485900257.41,63586,10.06,73256.3,-6.07,-7.53,-7.57,0,*5B
1485900258.65,63587,10.06,73260.8,-6.07,-7.43,-7.53,0,*5F
1485900259.9,63588,10.06,73266.3,-6.07,-7.53,-7.65,0,*54
1485900261.17,63589,10.06,73262.0,-6.07,-7.65,-7.65,0,*50
1485900262.45,63590,10.06,73258.0,-6.07,-7.65,-7.69,0,*54
1485900263.72,63591,10.06,73260.5,-6.07,-7.65,-7.77,0,*5A
1485900265.0,63592,10.06,73260.5,-6.07,-7.65,-7.69,0,*56
1485900266.27,63593,10.06,73266.0,-6.07,-7.57,-7.69,0,*56
1485900267.55,63594,10.06,73268.5,-6.07,-7.57,-7.69,0,*51
1485900268.8,63595,10.06,73264.3,-6.07,-7.53,-7.65,0,*58
1485900270.05,63596,10.06,73264.0,-6.07,-7.53,-7.65,0,*5B
1485900271.3,63597,10.06,73264.8,-6.07,-7.53,-7.65,0,*5A
1485900272.52,63598,10.06,73264.3,-6.05,-7.53,-7.65,0,*57
1485900273.77,63599,10.06,73266.8,-6.07,-7.53,-7.57,0,*55
1485900275.02,63600,10.06,73262.5,-6.05,-7.61,-7.73,0,*53
1485900276.3,63601,10.06,73258.0,-6.07,-7.57,-7.69,0,*5E
1485900277.52,63602,10.06,73262.0,-6.05,-7.49,-7.61,0,*58
1485900278.8,63603,10.06,73264.5,-6.07,-7.57,-7.65,0,*50
1485900280.08,63604,10.06,73264.8,-6.07,-7.57,-7.65,0,*57
1485900281.33,63605,10.06,73268.8,-6.07,-7.53,-7.57,0,*53
1485900282.6,63606,10.06,73270.5,-6.07,-7.65,-7.57,0,*55
1485900283.82,63607,10.06,73268.8,-6.05,-7.49,-7.57,0,*58
1485900285.1,63608,10.06,73270.5,-6.07,-7.65,-7.65,0,*5A
1485900286.29,63609,10.06,73266.5,-6.05,-7.49,-7.53,0,*52
1485900287.54,63610,10.06,73268.5,-6.05,-7.61,-7.61,0,*51
1485900288.79,63611,10.06,73270.0,-6.05,-7.65,-7.61,0,*54
1485900290.07,63612,10.06,73260.5,-6.07,-7.65,-7.65,0,*51
1485900291.35,63613,10.06,73260.3,-6.07,-7.65,-7.65,0,*50
1485900292.62,63614,10.06,73258.5,-6.07,-7.69,-7.57,0,*5A
1485900293.9,63615,10.06,73260.0,-6.07,-7.57,-7.57,0,*56
1485900295.18,63616,10.06,73252.0,-6.07,-7.65,-7.57,0,*54
1485900296.45,63617,10.06,73250.8,-6.07,-7.65,-7.57,0,*55
1485900297.73,63618,10.06,73250.8,-6.07,-7.65,-7.65,0,*5B
1485900299.01,63619,10.06,73252.0,-6.07,-7.65,-7.65,0,*5A
1485900300.28,63620,10.06,73252.3,-6.07,-7.65,-7.65,0,*50
1485900301.55,63621,10.06,73254.8,-6.07,-7.69,-7.69,0,*51
1485900302.82,63622,10.06,73252.8,-6.07,-7.69,-7.69,0,*52
1485900304.09,63623,10.06,73250.8,-6.07,-7.69,-7.69,0,*53
1485900305.37,63624,10.06,73238.3,-6.07,-7.69,-7.65,0,*58
1485900306.64,63625,10.06,73234.5,-6.07,-7.65,-7.57,0,*54
1485900307.89,63626,10.06,73230.8,-6.07,-7.57,-7.53,0,*52
1485900309.11,63627,10.06,73230.3,-6.09,-7.65,-7.53,0,*5C
1485900310.33,63628,10.06,73220.8,-6.09,-7.65,-7.53,0,*53
1485900311.59,63629,10.0,73226.3,-6.09,-7.57,-7.43,0,*52
1485900312.81,63630,10.0,73226.8,-6.09,-7.53,-7.43,0,*5E
1485900314.01,63631,10.06,73232.0,-6.09,-7.53,-7.53,0,*5E
1485900315.26,63632,10.0,73228.5,-6.09,-7.57,-7.57,0,*5D
1485900316.52,63633,10.06,73232.8,-6.09,-7.57,-7.43,0,*59
1485900317.77,63634,10.0,73244.8,-6.09,-7.57,-7.65,0,*5A
1485900319.02,63635,10.06,73258.8,-6.09,-7.65,-7.65,0,*5A
1485900320.27,63636,10.06,73264.8,-6.09,-7.69,-7.65,0,*55
1485900321.52,63637,10.06,73260.5,-6.09,-7.57,-7.57,0,*58
1485900322.8,63638,10.06,73266.0,-6.11,-7.57,-7.57,0,*5E
1485900324.05,63639,10.06,73262.8,-6.09,-7.43,-7.43,0,*56
1485900325.3,63640,10.06,73260.3,-6.09,-7.31,-7.31,0,*58
1485900326.55,63641,10.06,73256.8,-6.09,-7.43,-7.39,0,*54
1485900327.77,63642,10.06,73252.3,-6.11,-7.49,-7.49,0,*53
1485900329.01,63643,10.06,73254.0,-6.09,-7.43,-7.31,0,*5E
1485900330.26,63644,10.06,73250.3,-6.09,-7.31,-7.39,0,*54
1485900331.54,63645,10.06,73246.0,-6.07,-7.43,-7.43,0,*53
1485900332.82,63646,10.06,73246.0,-6.07,-7.43,-7.43,0,*50
1485900334.04,63647,10.0,73238.3,-6.09,-7.53,-7.43,0,*5E
1485900335.29,63648,10.06,73238.3,-6.07,-7.43,-7.53,0,*5F
1485900336.51,63649,10.06,73234.5,-6.07,-7.53,-7.53,0,*5F
1485900337.75,63650,10.06,73234.8,-6.07,-7.39,-7.53,0,*5B
1485900338.99,63651,10.0,73232.3,-6.09,-7.39,-7.43,0,*55
1485900340.24,63652,10.0,73240.0,-6.09,-7.43,-7.43,0,*5B
1485900341.49,63653,10.0,73240.5,-6.09,-7.43,-7.39,0,*57
1485900342.72,63654,10.06,73244.8,-6.09,-7.53,-7.43,0,*5C
1485900343.94,63655,10.06,73246.8,-6.09,-7.43,-7.53,0,*5D
1485900345.19,63656,10.06,73248.8,-6.09,-7.43,-7.43,0,*5F
1485900346.43,63657,10.06,73254.3,-6.09,-7.39,-7.39,0,*5E
1485900347.62,63658,10.06,73248.5,-6.09,-7.53,-7.53,0,*51
1485900348.88,63659,10.06,73248.5,-6.09,-7.43,-7.43,0,*50
1485900350.12,63660,10.06,73250.0,-6.07,-7.53,-7.65,0,*51
1485900351.37,63661,10.06,73244.0,-6.09,-7.65,-7.65,0,*5B
1485900352.65,63662,10.06,73246.0,-6.11,-7.57,-7.57,0,*51
1485900353.94,63663,10.0,73238.5,-6.07,-7.57,-7.65,0,*56
1485900355.22,63664,10.0,73232.5,-6.07,-7.57,-7.57,0,*50
1485900356.49,63665,10.06,73226.5,-6.07,-7.65,-7.57,0,*50
1485900357.74,63666,10.06,73226.3,-6.09,-7.65,-7.65,0,*5C
1485900359.02,63667,10.06,73226.0,-6.11,-7.65,-7.57,0,*55
1485900360.27,63668,10.06,73222.5,-6.09,-7.57,-7.57,0,*52
1485900361.5,63669,10.06,73212.0,-6.09,-7.57,-7.53,0,*57
1485900362.75,63670,10.06,73202.3,-6.09,-7.57,-7.43,0,*5E
1485900363.95,63671,10.06,73200.3,-6.09,-7.53,-7.53,0,*5A
1485900365.2,63672,10.0,73204.3,-6.09,-7.57,-7.43,0,*5C
1485900366.43,63673,10.06,73208.5,-6.09,-7.53,-7.43,0,*59
1485900367.65,63674,10.0,73208.8,-6.09,-7.65,-7.53,0,*5A
1485900368.84,63675,10.0,73208.8,-6.09,-7.53,-7.53,0,*5E
1485900370.03,63676,10.06,73204.3,-6.09,-7.53,-7.53,0,*5D
1485900371.3,63677,10.06,73208.3,-6.11,-7.69,-7.69,0,*55
1485900372.55,63678,10.0,73210.0,-6.09,-7.65,-7.65,0,*53
1485900373.8,63679,10.0,73210.3,-6.09,-7.65,-7.65,0,*52
1485900375.07,63680,10.06,73220.3,-6.07,-7.69,-7.65,0,*56
1485900376.32,63681,10.06,73230.8,-6.09,-7.65,-7.65,0,*55
1485900377.57,63682,10.0,73232.3,-6.09,-7.65,-7.65,0,*56
1485900378.82,63683,10.06,73242.8,-6.09,-7.65,-7.65,0,*57
1485900380.07,63684,10.0,73242.8,-6.11,-7.57,-7.53,0,*5D
1485900381.29,63685,10.06,73242.8,-6.09,-7.43,-7.53,0,*50
1485900382.48,63686,10.06,73248.5,-6.09,-7.53,-7.53,0,*52
1485900383.76,63687,10.06,73248.5,-6.11,-7.57,-7.57,0,*5A
1485900385.01,63688,10.06,73248.3,-6.11,-7.49,-7.57,0,*5A
1485900386.27,63689,10.0,73240.8,-6.09,-7.57,-7.61,0,*58
1485900387.55,63690,10.06,73246.0,-6.11,-7.61,-7.61,0,*5C
1485900388.8,63691,10.0,73244.8,-6.09,-7.57,-7.65,0,*55
1485900390.08,63692,10.06,73250.5,-6.11,-7.61,-7.61,0,*5E
1485900391.33,63693,10.06,73250.8,-6.11,-7.61,-7.49,0,*55
1485900392.58,63694,10.06,73250.8,-6.11,-7.49,-7.57,0,*57
1485900393.78,63695,10.0,73246.3,-6.09,-7.53,-7.49,0,*5B
1485900395.0,63696,10.06,73250.5,-6.09,-7.57,-7.53,0,*57
1485900396.22,63697,10.06,73252.0,-6.11,-7.49,-7.49,0,*5B
1485900397.47,63698,10.0,73250.5,-6.09,-7.43,-7.43,0,*5D
1485900398.72,63699,10.0,73248.0,-6.09,-7.43,-7.43,0,*5C
1485900400.0,63700,10.0,73254.8,-6.11,-7.57,-7.57,0,*54
1485900401.2,63701,10.06,73254.5,-6.09,-7.53,-7.53,0,*5C
1485900402.48,63702,10.06,73256.5,-6.11,-7.57,-7.57,0,*56
1485900403.76,63703,10.06,73262.0,-6.11,-7.57,-7.43,0,*52
1485900404.99,63704,10.0,73254.5,-6.09,-7.53,-7.43,0,*58
1485900406.21,63705,10.06,73254.8,-6.09,-7.53,-7.43,0,*59
1485900407.48,63706,10.06,73252.5,-6.11,-7.69,-7.57,0,*5F
1485900408.74,63707,10.0,73254.3,-6.09,-7.65,-7.57,0,*5B
1485900409.99,63708,10.06,73252.3,-6.09,-7.57,-7.57,0,*55
1485900411.24,63709,10.06,73254.0,-6.09,-7.65,-7.65,0,*54
1485900412.49,63710,10.06,73256.5,-6.09,-7.65,-7.65,0,*5C
1485900413.77,63711,10.0,73252.0,-6.11,-7.73,-7.69,0,*5F
1485900415.01,63712,10.0,73254.0,-6.09,-7.77,-7.65,0,*5D
1485900416.23,63713,10.0,73252.8,-6.09,-7.83,-7.69,0,*5B
1485900417.48,63714,10.06,73256.5,-6.09,-7.69,-7.69,0,*58
1485900418.68,63715,10.06,73256.5,-6.09,-7.87,-7.83,0,*5D
1485900419.93,63716,10.06,73258.0,-6.11,-7.87,-7.73,0,*58
1485900421.21,63717,10.06,73262.0,-6.11,-7.73,-7.73,0,*52
1485900422.49,63718,10.0,73258.0,-6.11,-7.73,-7.69,0,*56
1485900423.73,63719,10.06,73256.8,-6.09,-7.69,-7.65,0,*59
1485900424.96,63720,10.0,73258.3,-6.09,-7.83,-7.73,0,*50
1485900426.18,63721,10.0,73254.3,-6.09,-7.83,-7.73,0,*51
1485900427.46,63722,10.06,73256.3,-6.11,-7.73,-7.73,0,*54
1485900428.71,63723,10.0,73256.5,-6.09,-7.69,-7.65,0,*50
1485900429.98,63724,10.0,73254.5,-6.11,-7.69,-7.69,0,*52
1485900431.26,63725,10.0,73252.0,-6.11,-7.69,-7.57,0,*5E
1485900432.53,63726,10.0,73256.8,-6.11,-7.69,-7.65,0,*5C
1485900433.81,63727,10.0,73256.8,-6.11,-7.61,-7.57,0,*54
1485900435.03,63728,10.0,73256.3,-6.09,-7.53,-7.43,0,*56
1485900436.3,63729,10.0,73258.5,-6.11,-7.69,-7.69,0,*5F
1485900437.55,63730,10.0,73254.8,-6.09,-7.65,-7.57,0,*5F
1485900438.83,63731,10.06,73260.8,-6.11,-7.61,-7.57,0,*53
1485900440.09,63732,10.0,73258.8,-6.11,-7.57,-7.49,0,*5A
1485900441.33,63733,10.0,73258.8,-6.09,-7.43,-7.39,0,*50
1485900442.61,63734,10.0,73260.0,-6.11,-7.57,-7.57,0,*53
1485900443.87,63735,10.0,73262.8,-6.11,-7.57,-7.49,0,*5D
1485900445.08,63736,10.0,73260.5,-6.11,-7.49,-7.49,0,*51
1485900446.3,63737,10.0,73260.8,-6.11,-7.49,-7.49,0,*50
1485900447.58,63738,10.0,73258.5,-6.11,-7.69,-7.61,0,*57
1485900448.84,63739,10.06,73262.3,-6.09,-7.57,-7.57,0,*57
1485900450.11,63740,10.0,73260.0,-6.11,-7.61,-7.57,0,*55
1485900451.39,63741,10.0,73256.5,-6.11,-7.61,-7.57,0,*54
1485900452.67,63742,10.06,73258.5,-6.11,-7.61,-7.57,0,*57
1485900453.92,63743,10.0,73258.8,-6.11,-7.49,-7.57,0,*5C
1485900455.2,63744,10.0,73258.0,-6.11,-7.61,-7.61,0,*54
1485900456.42,63745,10.0,73258.0,-6.13,-7.57,-7.49,0,*58
1485900457.68,63746,10.0,73258.0,-6.13,-7.61,-7.57,0,*51
1485900458.93,63747,10.0,73258.3,-6.11,-7.57,-7.49,0,*58
1485900460.15,63748,10.0,73258.8,-6.11,-7.49,-7.49,0,*58
1485900461.4,63749,10.06,73262.5,-6.11,-7.49,-7.43,0,*53
1485900462.65,63750,10.0,73262.0,-6.11,-7.49,-7.31,0,*5E
1485900463.93,63751,10.06,73262.8,-6.11,-7.43,-7.43,0,*50
1485900465.2,63752,10.0,73262.0,-6.11,-7.35,-7.43,0,*52
1485900466.4,63753,10.0,73260.8,-6.09,-7.53,-7.53,0,*5B
1485900467.65,63754,10.0,73256.5,-6.09,-7.65,-7.65,0,*5C
1485900468.93,63755,10.0,73260.8,-6.11,-7.57,-7.57,0,*54
1485900470.2,63756,10.0,73256.0,-6.11,-7.69,-7.61,0,*5F
1485900471.48,63757,10.0,73256.3,-6.11,-7.61,-7.61,0,*56
1485900472.75,63758,10.0,73254.0,-6.11,-7.69,-7.69,0,*59
1485900474.03,63759,10.0,73254.0,-6.11,-7.61,-7.61,0,*58
1485900475.28,63760,10.0,73254.0,-6.13,-7.69,-7.61,0,*58
1485900476.54,63761,10.0,73250.8,-6.13,-7.61,-7.61,0,*51
1485900477.76,63762,10.0,73248.8,-6.11,-7.49,-7.49,0,*50
1485900478.99,63763,10.0,73252.0,-6.13,-7.57,-7.49,0,*5C
1485900480.21,63764,10.0,73252.3,-6.13,-7.49,-7.43,0,*5E
1485900481.44,63765,10.0,73250.5,-6.13,-7.49,-7.43,0,*5F
1485900482.67,63766,10.0,73250.3,-6.13,-7.57,-7.49,0,*59
1485900483.86,63767,10.0,73250.0,-6.13,-7.49,-7.49,0,*57
1485900485.09,63768,10.0,73256.0,-6.13,-7.49,-7.43,0,*52
1485900486.32,63769,10.0,73260.5,-6.13,-7.49,-7.43,0,*53
1485900487.57,63770,10.0,73262.5,-6.11,-7.49,-7.43,0,*59
1485900488.85,63771,10.0,73256.3,-6.11,-7.57,-7.43,0,*57
1485900490.13,63772,10.0,73258.5,-6.11,-7.57,-7.57,0,*51
1485900491.41,63773,10.0,73258.3,-6.11,-7.57,-7.57,0,*50
1485900492.69,63774,10.0,73260.3,-6.11,-7.61,-7.57,0,*52
1485900493.94,63775,10.0,73258.0,-6.11,-7.61,-7.49,0,*5C
1485900495.17,63776,10.0,73260.0,-6.13,-7.57,-7.49,0,*58
1485900496.42,63777,10.0,73254.3,-6.13,-7.57,-7.43,0,*53
1485900497.67,63778,10.0,73254.0,-6.11,-7.43,-7.49,0,*51
1485900498.92,63779,10.0,73252.8,-6.11,-7.49,-7.43,0,*50
1485900500.17,63780,10.0,73252.3,-6.11,-7.49,-7.43,0,*56
1485900501.42,63781,10.0,73250.3,-6.11,-7.49,-7.43,0,*57
1485900502.68,63782,10.0,73252.5,-6.11,-7.57,-7.49,0,*51
1485900503.96,63783,10.0,73252.5,-6.11,-7.61,-7.61,0,*5F
1485900505.24,63784,10.0,73248.5,-6.11,-7.61,-7.61,0,*58
1485900506.52,63785,10.0,73248.8,-6.11,-7.61,-7.61,0,*59
1485900507.74,63786,10.0,73248.5,-6.11,-7.49,-7.49,0,*5A
1485900509.01,63787,10.0,73254.0,-6.11,-7.43,-7.35,0,*5A
1485900510.29,63788,10.0,73252.8,-6.11,-7.43,-7.43,0,*54
1485900511.57,63789,10.0,73252.3,-6.11,-7.35,-7.43,0,*54
1485900512.84,63790,10.0,73248.0,-6.11,-7.69,-7.69,0,*5D
1485900514.12,63791,10.0,73250.3,-6.11,-7.61,-7.61,0,*5C
1485900515.37,63792,10.0,73252.3,-6.09,-7.57,-7.57,0,*56
1485900516.59,63793,10.0,73254.0,-6.11,-7.49,-7.49,0,*5E
1485900517.85,63794,10.0,73254.8,-6.11,-7.57,-7.49,0,*56
1485900519.13,63795,10.0,73256.5,-6.11,-7.57,-7.57,0,*58
1485900520.38,63796,10.0,73254.0,-6.11,-7.57,-7.49,0,*54